星链-30253 (STARLINK-30253 )

导读

STARLINK-30253是美国SpaceX星链(Starlink)卫星互联网项目中的一员,于2023年8月8日,由猎鹰9号火箭在范登堡航天基地发射入轨。卫星运行于近地轨道,轨道倾角约43°,周期约91.6分钟,属于Starlink V1.0平台,旨在为全球尤其是偏远地区提供高速低延迟的互联网接入服务,助力缩小全球数字鸿沟,同时也可为军事、航空等领域提供通信支持。

Basic Information
目录编号:
57525
目录名称:
STARLINK-30253
国际标识:
2023-115E
轨道中心:
EARTH
卫星名称:
星链-30253
卫星全名:
星链-30253 (STARLINK-30253 )
卫星状态:
在轨 (已飞行1045 天)
发射日期:
2023-08-08 UTC
国别 :
美国 (US)
星等 :
--
Orbit Information
数据来源 国际轨道数据 AOE轨道数据
星历时间 2026-06-18T06:52:39+0800
16小时前
查看轨道信息
2026-06-17T01:00:00+0800
1天前
查看轨道信息
半长轴 6861.181km 6861.207km
偏心率 0.0000678 0.0000956
轨道倾角 43.000° 43.001°
近地点辐角 248.157° 257.801°
升交点赤经 155.506° 162.533°
平近点角 111.921° 88.162°
近地点 482.578km 482.414km
远地点 483.51km 483.726km
周期 94.267分钟 94.267分钟
每日圈数 15.275818 15.275731
Detailed Information
固有亮度:
5
最大亮度:
0.3
卫星平台:
Starlink v2.0 mini
覆盖范围:
全球
运营商:
太空探索技术公司
运营商所在国:
美国
制造商(研发单位):
太空探索技术公司
制造商所在国:
美国
使用方式:
暂无
Satellite Introduction
星链(Starlink)计划是由太空探索技术公司(SpaceX)提出的一个巨型低轨卫星互联网星座项目,计划在2019年至2024年间在太空搭建由约1.2万颗卫星组成的“星链”网络,其中1584颗将部署在地球上空550千米处的近地轨道,并从2020年开始工作。该卫星仍在工作。
2D Orbit Map
3D Orbit Map
Orbit Altitude Analysis Chart
Orbit Inclination Analysis Chart
Orbit Comprehensive Analysis Chart
View Comprehensive Chart